Date String (YYYY-MM-DD hh:mm:ss) UTC,Instrument flags,Ambient pressure (hPa),Sample flow (lpm),Bypass flow (lpm),Sample temperature (°C),Ambient temperature (°C),ASC tube jacket temperature (°C),LED temperature (°C),Box temperature (°C),Sample RH (%),Span deviation,Mass concentration (μg/m³),Mass concentration (μg/m³),Mass concentration (μg/m³)
DateTimeUTC,F1_M11,P_M11,Q1_M11,Q2_M11,T1_M11,T2_M11,T3_M11,T4_M11,T5_M11,U1_M11,ZSPAN_M11,X0_M11,X2_M11,X1_M11
2022-04-24 08:00:00,,0822.6,5.01,0.00,22.8,22.0,00.0,31.7,24.6,14.9,0000.0,0004.72,0001.23,0000.66
2022-04-24 08:01:00,,0822.6,5.00,0.00,22.8,22.0,00.0,31.7,24.7,14.8,0000.0,0004.78,0001.25,0000.66
2022-04-24 08:02:00,,0822.6,5.00,0.00,22.8,22.0,00.0,31.7,24.7,14.9,0000.0,0004.81,0001.26,0000.65
2022-04-24 08:03:00,,0822.6,4.99,0.00,22.8,22.0,00.0,31.7,24.6,15.1,0000.0,0004.74,0001.25,0000.65
2022-04-24 08:04:00,,0822.6,5.00,0.00,22.8,22.0,00.0,31.7,24.6,15.2,0000.0,0004.78,0001.28,0000.65
2022-04-24 08:05:00,,0822.6,5.00,0.00,22.8,21.9,00.0,31.7,24.6,15.3,0000.0,0004.69,0001.27,0000.64
2022-04-24 08:06:00,,0822.7,5.00,0.00,22.8,21.9,00.0,31.7,24.7,15.3,0000.0,0004.16,0001.29,0000.64
2022-04-24 08:07:00,,0822.6,5.02,0.00,22.8,21.9,00.0,31.7,24.7,15.4,0000.0,0004.30,0001.33,0000.63
2022-04-24 08:08:00,,0822.6,4.99,0.00,22.8,21.9,00.0,31.7,24.7,15.5,0000.0,0004.26,0001.33,0000.63
2022-04-24 08:09:00,,0822.6,4.99,0.00,22.8,21.9,00.0,31.7,24.6,15.5,0000.0,0004.02,0001.24,0000.62
2022-04-24 08:10:00,,0822.6,4.99,0.00,22.8,21.9,00.0,31.7,24.6,15.5,0000.0,0003.87,0001.23,0000.62
2022-04-24 08:11:00,,0822.7,5.00,0.00,22.8,21.9,00.0,31.7,24.6,15.5,0000.0,0003.97,0001.24,0000.62
2022-04-24 08:12:00,,0822.6,5.00,0.00,22.8,22.0,00.0,31.7,24.6,15.5,0000.0,0004.65,0001.21,0000.60
2022-04-24 08:13:00,,0822.7,5.00,0.00,22.8,22.0,00.0,31.7,24.6,15.5,0000.0,0004.78,0001.22,0000.60
2022-04-24 08:14:00,,0822.7,5.00,0.00,22.8,22.0,00.0,31.7,24.6,15.5,0000.0,0004.99,0001.25,0000.60
2022-04-24 08:15:00,,0822.6,5.00,0.00,22.8,22.0,00.0,31.7,24.7,15.5,0000.0,0004.94,0001.22,0000.60
2022-04-24 08:16:00,,0822.7,5.01,0.00,22.8,22.0,00.0,31.7,24.6,15.5,0000.0,0004.85,0001.20,0000.60
2022-04-24 08:17:00,,0822.6,5.00,0.00,22.8,22.0,00.0,31.7,24.6,15.4,0000.0,0004.71,0001.15,0000.60
2022-04-24 08:18:00,,0822.7,5.00,0.00,22.8,22.0,00.0,31.7,24.7,15.4,0000.0,0004.13,0001.10,0000.61
2022-04-24 08:19:00,,0822.7,5.01,0.00,22.8,22.0,00.0,31.7,24.7,15.4,0000.0,0003.89,0001.07,0000.60
2022-04-24 08:20:00,,0822.6,5.01,0.00,22.8,22.0,00.0,31.7,24.6,15.2,0000.0,0003.91,0001.09,0000.60
2022-04-24 08:21:00,,0822.7,4.99,0.00,22.8,22.0,00.0,31.7,24.6,15.3,0000.0,0003.88,0001.09,0000.61
2022-04-24 08:22:00,,0822.7,5.00,0.00,22.8,22.0,00.0,31.7,24.7,15.4,0000.0,0004.04,0001.06,0000.62
2022-04-24 08:23:00,,0822.7,5.00,0.00,22.8,21.9,00.0,31.7,24.7,15.4,0000.0,0004.27,0001.06,0000.62
2022-04-24 08:24:00,,0822.7,5.00,0.00,22.8,22.0,00.0,31.7,24.6,15.3,0000.0,0005.18,0001.04,0000.64
2022-04-24 08:25:00,,0822.7,5.01,0.00,22.8,22.0,00.0,31.7,24.6,15.2,0000.0,0005.42,0001.00,0000.63
2022-04-24 08:26:00,,0822.6,5.00,0.00,22.8,22.0,00.0,31.7,24.6,15.2,0000.0,0006.03,0001.00,0000.63
2022-04-24 08:27:00,,0822.7,5.00,0.00,22.8,22.0,00.0,31.7,24.7,15.2,0000.0,0006.45,0001.07,0000.64
2022-04-24 08:28:00,,0822.6,5.01,0.00,22.8,22.0,00.0,31.7,24.7,15.2,0000.0,0006.54,0001.10,0000.64
2022-04-24 08:29:00,,0822.6,5.00,0.00,22.8,22.0,00.0,31.7,24.7,15.3,0000.0,0006.33,0001.14,0000.64
2022-04-24 08:30:00,,0822.7,5.00,0.00,22.8,22.0,00.0,31.8,24.7,15.3,0000.0,0006.33,0001.13,0000.64
2022-04-24 08:31:00,,0822.7,4.99,0.00,22.8,22.0,00.0,31.8,24.7,15.4,0000.0,0006.35,0001.14,0000.64
2022-04-24 08:32:00,,0822.8,4.99,0.00,22.9,22.0,00.0,31.7,24.7,15.4,0000.0,0006.40,0001.16,0000.63
2022-04-24 08:33:00,,0822.8,5.01,0.00,22.9,22.0,00.0,31.8,24.7,15.3,0000.0,0006.36,0001.17,0000.63
2022-04-24 08:34:00,,0822.9,5.01,0.00,22.9,22.0,00.0,31.8,24.7,15.3,0000.0,0004.84,0001.13,0000.64
2022-04-24 08:35:00,,0822.9,5.00,0.00,22.8,22.0,00.0,31.8,24.7,15.3,0000.0,0004.58,0001.12,0000.63
2022-04-24 08:36:00,,0822.9,4.99,0.00,22.8,22.0,00.0,31.8,24.6,15.4,0000.0,0004.45,0001.14,0000.63
2022-04-24 08:37:00,,0822.9,5.00,0.00,22.8,21.9,00.0,31.8,24.6,15.4,0000.0,0003.67,0001.15,0000.63
2022-04-24 08:38:00,,0822.9,5.01,0.00,22.8,21.9,00.0,31.7,24.6,15.5,0000.0,0003.25,0001.05,0000.62
2022-04-24 08:39:00,,0822.9,5.02,0.00,22.8,21.9,00.0,31.7,24.6,15.6,0000.0,0002.93,0001.02,0000.62
2022-04-24 08:40:00,,0822.9,5.00,0.00,22.8,21.9,00.0,31.7,24.6,15.6,0000.0,0002.80,0000.96,0000.61
2022-04-24 08:41:00,,0822.9,5.00,0.00,22.8,21.9,00.0,31.7,24.6,15.6,0000.0,0002.84,0000.97,0000.61
2022-04-24 08:42:00,,0822.9,5.00,0.00,22.8,21.9,00.0,31.7,24.6,15.7,0000.0,0002.90,0000.97,0000.62
2022-04-24 08:43:00,,0823.0,5.00,0.00,22.8,21.9,00.0,31.7,24.6,15.7,0000.0,0002.93,0000.99,0000.62
2022-04-24 08:44:00,,0823.0,4.99,0.00,22.8,21.9,00.0,31.7,24.6,15.7,0000.0,0002.90,0001.00,0000.62
2022-04-24 08:45:00,,0822.9,5.00,0.00,22.8,21.9,00.0,31.7,24.6,15.6,0000.0,0003.01,0000.99,0000.62
2022-04-24 08:46:00,,0822.9,5.02,0.00,22.8,21.9,00.0,31.7,24.6,15.6,0000.0,0002.61,0001.00,0000.62
2022-04-24 08:47:00,,0822.9,5.00,0.00,22.8,21.9,00.0,31.7,24.6,15.6,0000.0,0002.40,0001.01,0000.61
2022-04-24 08:48:00,,0823.0,5.00,0.00,22.7,21.9,00.0,31.7,24.6,15.6,0000.0,0002.82,0000.99,0000.60
2022-04-24 08:49:00,,0823.0,5.01,0.00,22.7,21.9,00.0,31.7,24.5,15.7,0000.0,0002.93,0001.01,0000.60
2022-04-24 08:50:00,,0823.0,5.00,0.00,22.7,21.8,00.0,31.7,24.5,15.6,0000.0,0003.93,0001.02,0000.60
2022-04-24 08:51:00,,0823.0,5.00,0.00,22.7,21.8,00.0,31.7,24.5,15.6,0000.0,0004.03,0001.03,0000.59
2022-04-24 08:52:00,,0823.0,5.00,0.00,22.6,21.8,00.0,31.7,24.4,15.6,0000.0,0004.06,0001.03,0000.59
2022-04-24 08:53:00,,0823.0,5.00,0.00,22.6,21.8,00.0,31.6,24.4,15.6,0000.0,0004.09,0001.04,0000.58
2022-04-24 08:54:00,,0823.0,5.00,0.00,22.6,21.7,00.0,31.6,24.3,15.7,0000.0,0004.14,0001.02,0000.58
2022-04-24 08:55:00,,0823.1,5.01,0.00,22.5,21.7,00.0,31.6,24.2,15.8,0000.0,0004.22,0001.00,0000.58
2022-04-24 08:56:00,,0823.1,4.99,0.00,22.5,21.7,00.0,31.6,24.2,15.8,0000.0,0004.14,0001.02,0000.59
2022-04-24 08:57:00,,0823.1,5.00,0.00,22.5,21.7,00.0,31.6,24.2,15.8,0000.0,0004.18,0001.06,0000.59
2022-04-24 08:58:00,,0823.1,5.00,0.00,22.5,21.6,00.0,31.6,24.2,15.9,0000.0,0003.87,0001.08,0000.60
2022-04-24 08:59:00,,0823.1,5.00,0.00,22.4,21.6,00.0,31.5,24.1,15.9,0000.0,0003.54,0001.10,0000.61
